Date String (YYYY-MM-DD hh:mm:ss) UTC,Instrument flags,Ambient pressure (hPa),Sample flow (lpm),Bypass flow (lpm),Sample temperature (°C),Ambient temperature (°C),ASC tube jacket temperature (°C),LED temperature (°C),Box temperature (°C),Sample RH (%),Span deviation,Mass concentration (μg/m³),Mass concentration (μg/m³),Mass concentration (μg/m³)
DateTimeUTC,F1_M11,P_M11,Q1_M11,Q2_M11,T1_M11,T2_M11,T3_M11,T4_M11,T5_M11,U1_M11,ZSPAN_M11,X0_M11,X2_M11,X1_M11
2021-12-21 07:00:00,,0823.4,4.99,0.00,22.3,21.6,00.0,31.2,24.1,10.0,0000.0,0026.90,0006.38,0004.71
2021-12-21 07:01:00,,0823.4,5.01,0.00,22.3,21.6,00.0,31.2,24.1,10.0,0000.0,0027.01,0006.28,0004.63
2021-12-21 07:02:00,,0823.4,4.99,0.00,22.3,21.6,00.0,31.3,24.1,10.1,0000.0,0025.75,0006.22,0004.58
2021-12-21 07:03:00,,0823.4,5.01,0.00,22.3,21.6,00.0,31.3,24.1,10.1,0000.0,0025.53,0006.19,0004.53
2021-12-21 07:04:00,,0823.4,4.99,0.00,22.3,21.5,00.0,31.3,24.0,10.2,0000.0,0025.21,0006.15,0004.52
2021-12-21 07:05:00,,0823.3,5.00,0.00,22.3,21.5,00.0,31.3,24.0,10.2,0000.0,0023.29,0006.17,0004.53
2021-12-21 07:06:00,,0823.3,5.02,0.00,22.3,21.5,00.0,31.3,24.0,10.2,0000.0,0022.03,0006.21,0004.55
2021-12-21 07:07:00,,0823.2,4.99,0.00,22.3,21.5,00.0,31.2,24.0,10.1,0000.0,0020.74,0006.28,0004.57
2021-12-21 07:08:00,,0823.0,5.00,0.00,22.3,21.5,00.0,31.2,24.0,10.1,0000.0,0020.50,0006.35,0004.59
2021-12-21 07:09:00,,0822.9,5.02,0.00,22.3,21.5,00.0,31.2,23.9,09.9,0000.0,0018.55,0006.36,0004.61
2021-12-21 07:10:00,,0823.0,4.99,0.00,22.2,21.5,00.0,31.2,23.9,09.8,0000.0,0018.75,0006.34,0004.58
2021-12-21 07:11:00,,0822.9,5.00,0.00,22.2,21.5,00.0,31.2,23.9,10.1,0000.0,0018.88,0006.36,0004.60
2021-12-21 07:12:00,,0823.1,5.01,0.00,22.2,21.4,00.0,31.2,23.9,10.1,0000.0,0019.10,0006.40,0004.61
2021-12-21 07:13:00,,0823.2,5.00,0.00,22.2,21.4,00.0,31.2,23.9,10.1,0000.0,0019.71,0006.38,0004.58
2021-12-21 07:14:00,,0823.4,4.99,0.00,22.2,21.4,00.0,31.2,23.9,10.0,0000.0,0018.74,0006.24,0004.53
2021-12-21 07:15:00,,0823.3,5.00,0.00,22.2,21.4,00.0,31.2,23.9,10.0,0000.0,0017.50,0006.14,0004.48
2021-12-21 07:16:00,,0823.3,5.02,0.00,22.2,21.4,00.0,31.2,23.9,10.0,0000.0,0018.06,0006.10,0004.43
2021-12-21 07:17:00,,0823.4,4.99,0.00,22.2,21.4,00.0,31.2,23.9,09.8,0000.0,0017.90,0006.02,0004.37
2021-12-21 07:18:00,,0823.3,5.00,0.00,22.2,21.4,00.0,31.2,23.9,09.8,0000.0,0017.51,0005.92,0004.30
2021-12-21 07:19:00,,0823.3,5.01,0.00,22.1,21.4,00.0,31.2,23.8,09.7,0000.0,0017.14,0005.82,0004.27
2021-12-21 07:20:00,,0823.1,4.99,0.00,22.1,21.3,00.0,31.2,23.8,09.5,0000.0,0017.13,0005.71,0004.22
2021-12-21 07:21:00,,0823.0,5.01,0.00,22.1,21.3,00.0,31.2,23.8,09.6,0000.0,0017.27,0005.73,0004.20
2021-12-21 07:22:00,,0822.8,5.00,0.00,22.1,21.3,00.0,31.2,23.8,09.5,0000.0,0016.79,0005.67,0004.11
2021-12-21 07:23:00,,0822.8,4.99,0.00,22.1,21.3,00.0,31.2,23.8,09.7,0000.0,0015.92,0005.54,0004.04
2021-12-21 07:24:00,,0822.9,4.99,0.00,22.1,21.3,00.0,31.2,23.7,09.8,0000.0,0015.32,0005.48,0003.99
2021-12-21 07:25:00,,0823.1,5.01,0.00,22.1,21.4,00.0,31.2,23.8,09.7,0000.0,0015.32,0005.49,0003.95
2021-12-21 07:26:00,,0823.3,4.99,0.00,22.2,22.1,00.0,31.2,24.1,09.7,0000.0,0016.10,0005.50,0003.90
2021-12-21 07:27:00,,0823.4,5.00,0.00,22.3,22.9,00.0,31.2,24.3,09.7,0000.0,0016.05,0005.46,0003.86
2021-12-21 07:28:00,,0823.3,5.00,0.00,22.4,22.9,00.0,31.3,24.4,09.6,0000.0,0015.69,0005.40,0003.81
2021-12-21 07:29:00,,0823.2,4.99,0.00,22.5,22.7,00.0,31.3,24.4,09.5,0000.0,0015.51,0005.40,0003.80
2021-12-21 07:30:00,,0823.0,4.99,0.00,22.5,22.5,00.0,31.3,24.3,09.1,0000.0,0015.26,0005.33,0003.73
2021-12-21 07:31:00,,0822.9,5.00,0.00,22.5,22.4,00.0,31.3,24.3,08.9,0000.0,0014.88,0005.31,0003.67
2021-12-21 07:32:00,,0822.9,5.01,0.00,22.5,22.3,00.0,31.3,24.3,08.7,0000.0,0014.09,0005.18,0003.62
2021-12-21 07:33:00,,0822.8,4.99,0.00,22.5,22.2,00.0,31.4,24.3,08.6,0000.0,0015.04,0005.04,0003.56
2021-12-21 07:34:00,,0822.8,4.99,0.00,22.5,22.1,00.0,31.4,24.3,08.7,0000.0,0015.01,0004.92,0003.48
2021-12-21 07:35:00,,0822.8,5.00,0.00,22.5,22.1,00.0,31.4,24.3,09.1,0000.0,0014.26,0004.83,0003.41
2021-12-21 07:36:00,,0822.8,5.01,0.00,22.5,22.0,00.0,31.4,24.3,09.3,0000.0,0014.09,0004.86,0003.41
2021-12-21 07:37:00,,0823.0,4.99,0.00,22.5,22.0,00.0,31.4,24.2,09.3,0000.0,0013.65,0004.89,0003.41
2021-12-21 07:38:00,,0823.0,5.01,0.00,22.5,21.9,00.0,31.4,24.2,09.4,0000.0,0013.03,0004.82,0003.38
2021-12-21 07:39:00,,0823.1,4.99,0.00,22.5,21.9,00.0,31.4,24.2,09.6,0000.0,0013.49,0004.85,0003.41
2021-12-21 07:40:00,,0823.0,5.01,0.00,22.5,21.8,00.0,31.4,24.1,09.5,0000.0,0014.82,0004.88,0003.42
2021-12-21 07:41:00,,0823.1,4.99,0.00,22.4,21.8,00.0,31.4,24.1,09.5,0000.0,0015.11,0004.96,0003.48
2021-12-21 07:42:00,,0823.0,5.01,0.00,22.5,21.8,00.0,31.4,24.1,09.4,0000.0,0015.62,0005.05,0003.55
2021-12-21 07:43:00,,0822.9,4.99,0.00,22.4,21.8,00.0,31.4,24.2,09.2,0000.0,0016.16,0005.16,0003.60
2021-12-21 07:44:00,,0822.9,4.99,0.00,22.4,21.8,00.0,31.4,24.2,09.3,0000.0,0015.42,0005.28,0003.66
2021-12-21 07:45:00,,0822.9,5.02,0.00,22.5,21.8,00.0,31.4,24.2,09.2,0000.0,0015.33,0005.35,0003.73
2021-12-21 07:46:00,,0823.1,4.99,0.00,22.5,21.8,00.0,31.4,24.2,09.0,0000.0,0015.84,0005.35,0003.74
2021-12-21 07:47:00,,0823.2,5.01,0.00,22.5,21.8,00.0,31.4,24.2,09.1,0000.0,0015.96,0005.27,0003.70
2021-12-21 07:48:00,,0823.1,4.99,0.00,22.5,21.8,00.0,31.4,24.2,09.3,0000.0,0015.91,0005.17,0003.68
2021-12-21 07:49:00,,0823.0,5.02,0.00,22.5,21.8,00.0,31.4,24.1,09.2,0000.0,0016.26,0005.15,0003.68
2021-12-21 07:50:00,,0823.0,4.99,0.00,22.4,21.7,00.0,31.4,24.1,09.3,0000.0,0015.92,0005.10,0003.65
2021-12-21 07:51:00,,0822.8,5.01,0.00,22.4,21.7,00.0,31.4,24.1,09.0,0000.0,0015.42,0004.97,0003.60
2021-12-21 07:52:00,,0822.7,5.01,0.00,22.4,21.7,00.0,31.4,24.1,08.7,0000.0,0015.07,0004.81,0003.51
2021-12-21 07:53:00,,0822.7,5.00,0.00,22.4,21.6,00.0,31.4,24.0,08.7,0000.0,0014.53,0004.70,0003.42
2021-12-21 07:54:00,,0822.8,5.01,0.00,22.4,21.6,00.0,31.4,24.0,08.6,0000.0,0014.15,0004.56,0003.36
2021-12-21 07:55:00,,0822.7,4.98,0.00,22.4,21.6,00.0,31.4,24.1,08.5,0000.0,0013.97,0004.43,0003.29
2021-12-21 07:56:00,,0822.6,5.01,0.00,22.4,21.6,00.0,31.4,24.1,08.5,0000.0,0013.88,0004.29,0003.21
2021-12-21 07:57:00,,0822.7,4.99,0.00,22.4,21.6,00.0,31.4,24.1,08.5,0000.0,0013.60,0004.23,0003.15
2021-12-21 07:58:00,,0822.7,5.01,0.00,22.4,21.6,00.0,31.4,24.1,08.6,0000.0,0013.59,0004.16,0003.10
2021-12-21 07:59:00,,0822.7,4.98,0.00,22.4,21.6,00.0,31.4,24.1,08.6,0000.0,0013.83,0004.11,0003.00
